DECAYED

OBJECT J, 43839 (Decayed)

Orbit data source: Space-Track

You're viewing an Uncataloged Satellite

Recently launched and/or uncataloged satellites may have evolving metadata. Metadata may include but not limited to: Owner, Maufacturer, Bus, Motor, and Mission.

OBJECT J, 43839 was a satellite in LEO that was launched on Fri, 07 Dec 2018 UTC via a CHANG ZHENG 2D launch vehicle from the Jiuquan Satellite Launch Center, China (JSC). Unknown objects in Earth's orbit typically refer to objects detected orbiting the Earth but have not yet been identified or cataloged. These objects could be anything from previously untracked satellites, spent rocket stages, debris from satellite collisions, or even natural meteoroids temporarily captured by Earth's gravity. This object's orbit decayed before it could be identified.

Not visible in the next 10 days
Identifier
43839, 2018-102J
Orbit
Decayed
Last TLE update
5 months ago
Origin
Flag of TBDBTWK/LUHAN (TBD)
Manufacturer
Jiutian
Mission
Decayed Commercial Communications
Bus & Motor
CUBESAT 3U?, Unknown motor
Mass
5 kg wet, 5 kg dry
Launch date (UTC)
2018-12-07 (7 years ago)
Launch vehicle
CHANG ZHENG 2D
Launch site
Jiuquan Satellite Launch Center, China (JSC)
Object type
Unknown
Shape & HBR
Box, 0.3 m
Radar Cross Section
0.035 m², Medium (>0.1 m² and < 1m²)

Expand to show TLE details & history

TLE from 5 months ago
0 OBJECT J
1 43839U 18102J   25029.13895652  .10634673  25315-5  68446-3 0  9998
2 43839  97.4057 128.9954 0009824 284.1394  75.8813 16.40903915340583
Epoch: 2025-01-29T03:20Z
TLE epoch observation values (Epoch: 2025-01-29T03:20:05.843Z)
Latitude
-0.00011°
Longitude
-49.66359°
Altitude
165.089 km
Speed
7.808 km/s
True Right ascension
08h 35m 58s
True Declination
0° 00' 00"
Sunlit
Object was in full shadow at epoch
Visualization orbit readout
Visualization observer readout
Orbital elements
Apogee altitude
166.629 km
Perigee altitude
153.782 km
Semi-major axis
6,538.343 km
Eccentricity
0.00098
Inclination
97.4057°
RAAN
128.9954°
Arg. of periapsis
284.1394°
True anomaly
Unknown
Mean anomaly
75.8813°
Eccentric anomaly
Unknown
Mean motion
4.10527 °/min
Orbital period
87.69 mins
BSTAR
0.00068446
Loading maneuver chart data...
Loading SW <> Apogee altitude chart data...
Loading historical data...
Loading historical data...
Loading historical data...
Loading historical data...
Loading historical data...
Loading historical data...
Loading historical data...

OBJECT J Visibility

Observer location: undefined°, undefined°

This satellite is decayed
Span
Click to sort rows by Start time (UTC) header in descending order
Start Az.
Max El. time (UTC)
Max El. Az.
Max El.
End time (UTC)
End Az.
|